Tracking 18852 objects as of 23-Nov-2017
HD Live streaming from Space Station
objects crossing your sky now

INTELSAT 604

Track INTELSAT 604 now!
INTELSAT 604 is classified as:


NORAD ID: 20667
Int'l Code: 1990-056A
Perigee: 36,268.8 km
Apogee: 36,364.9 km
Inclination: 12.3 °
Period: 1,462.9 minutes
Semi major axis: 42687 km
RCS: 9.3925 m2 (large)
Launch date: June 23, 1990
Source: International Telecommunications Satellite Organization (ITSO)
Launch site: AIR FORCE EASTERN TEST RANGE (AFETR)

Inclined orbit; 64 C-band, 24 Ku-band; Broadcasting, business services, direct-to-home TV broadcasting, telecommunications, VSAT networks; Asia Pacific region.
aabbcc
Your satellite tracking list
Your tracking list is empty




NASA's NSSDC Master Catalog

Two Line Element Set (TLE):
1 20667U 90056A   17325.59563233 -.00000160 +00000-0 +00000-0 0  9993
2 20667 012.2914 033.5523 0011257 243.6156 120.9761 00.98434296015676
Source of the keplerian elements: AFSPC